Year,Month,Day,Hour,Minute,Value (Times are PST for temperature in C)
2014,08,10,09,10,16.40
2014,08,10,09,11,16.30
2014,08,10,09,12,16.30
2014,08,10,09,13,16.30
2014,08,10,09,14,16.20
2014,08,10,09,15,16.20
2014,08,10,09,16,16.20
2014,08,10,09,17,16.20
2014,08,10,09,18,16.20
2014,08,10,09,19,16.20
2014,08,10,09,20,16.20
2014,08,10,09,21,16.30
2014,08,10,09,22,16.30
2014,08,10,09,23,16.40
2014,08,10,09,24,16.50
2014,08,10,09,25,16.60
2014,08,10,09,26,16.60
2014,08,10,09,27,16.70
2014,08,10,09,28,16.80
2014,08,10,09,29,16.80
2014,08,10,09,30,16.90
2014,08,10,09,31,17.00
2014,08,10,09,32,17.00
2014,08,10,09,33,17.10
2014,08,10,09,34,17.10
2014,08,10,09,35,17.20
2014,08,10,09,36,17.20
2014,08,10,09,37,17.20
2014,08,10,09,38,17.30
2014,08,10,09,39,17.30
2014,08,10,09,40,17.40
2014,08,10,09,41,17.50
2014,08,10,09,42,17.70
2014,08,10,09,43,17.90
2014,08,10,09,44,18.10
2014,08,10,09,45,18.30
2014,08,10,09,46,18.40
2014,08,10,09,47,18.40
2014,08,10,09,48,18.40
2014,08,10,09,49,18.40
2014,08,10,09,50,18.40
2014,08,10,09,51,18.30
2014,08,10,09,52,18.30
2014,08,10,09,53,18.30
2014,08,10,09,54,18.30
2014,08,10,09,55,18.30
2014,08,10,09,56,18.30
2014,08,10,09,57,18.30
2014,08,10,09,58,18.30
2014,08,10,09,59,18.20
2014,08,10,10,00,18.10
2014,08,10,10,01,17.90
2014,08,10,10,02,17.80
2014,08,10,10,03,17.80
2014,08,10,10,04,17.70
2014,08,10,10,05,17.70
2014,08,10,10,06,17.60
2014,08,10,10,07,17.60
2014,08,10,10,08,17.50
2014,08,10,10,09,17.60
2014,08,10,10,10,17.60
2014,08,10,10,11,17.70
2014,08,10,10,12,17.80
2014,08,10,10,13,18.00
2014,08,10,10,14,18.10
2014,08,10,10,15,18.30
2014,08,10,10,16,18.40
2014,08,10,10,17,18.50
2014,08,10,10,18,18.70
2014,08,10,10,19,18.90
2014,08,10,10,20,19.10
2014,08,10,10,21,19.30
2014,08,10,10,22,19.40
2014,08,10,10,23,19.40
2014,08,10,10,24,19.40
2014,08,10,10,25,19.30
2014,08,10,10,26,19.20
2014,08,10,10,27,19.20
2014,08,10,10,28,19.10
2014,08,10,10,29,19.00
2014,08,10,10,30,18.90
2014,08,10,10,31,18.80
2014,08,10,10,32,18.70
2014,08,10,10,33,18.60
2014,08,10,10,34,18.60
2014,08,10,10,35,18.50
2014,08,10,10,36,18.30
2014,08,10,10,37,18.20
2014,08,10,10,38,18.10
2014,08,10,10,39,18.10
2014,08,10,10,40,18.00
2014,08,10,10,41,17.90
2014,08,10,10,42,17.90
2014,08,10,10,43,17.80
2014,08,10,10,44,17.60
2014,08,10,10,45,17.50
2014,08,10,10,46,17.40
2014,08,10,10,47,17.30
2014,08,10,10,48,17.30
2014,08,10,10,49,17.30
2014,08,10,10,50,17.40
2014,08,10,10,51,17.40
2014,08,10,10,52,17.50
2014,08,10,10,53,17.60
2014,08,10,10,54,17.60
2014,08,10,10,55,17.60
2014,08,10,10,56,17.70
2014,08,10,10,57,17.70
2014,08,10,10,58,17.70
2014,08,10,10,59,17.80
2014,08,10,11,00,18.00
2014,08,10,11,01,18.10
2014,08,10,11,02,18.20
2014,08,10,11,03,18.30
2014,08,10,11,04,18.30
2014,08,10,11,05,18.40
2014,08,10,11,06,18.50
2014,08,10,11,07,18.60
2014,08,10,11,08,18.70
2014,08,10,11,09,18.80
2014,08,10,11,10,18.90
2014,08,10,11,11,19.00
2014,08,10,11,12,19.00
2014,08,10,11,13,18.90
2014,08,10,11,14,18.80
2014,08,10,11,15,18.70
2014,08,10,11,16,18.60
2014,08,10,11,17,18.40
2014,08,10,11,18,18.30
2014,08,10,11,19,18.30
2014,08,10,11,20,18.20
2014,08,10,11,21,18.20
2014,08,10,11,22,18.20
2014,08,10,11,23,18.20
2014,08,10,11,24,18.20
2014,08,10,11,25,18.20
2014,08,10,11,26,18.20
2014,08,10,11,27,18.20
2014,08,10,11,28,18.20
2014,08,10,11,29,18.20
2014,08,10,11,30,18.20
2014,08,10,11,31,18.30
2014,08,10,11,32,18.30
2014,08,10,11,33,18.30
2014,08,10,11,34,18.30
2014,08,10,11,35,18.30
2014,08,10,11,36,18.30
2014,08,10,11,37,18.30
2014,08,10,11,38,18.40
2014,08,10,11,39,18.40
2014,08,10,11,40,18.40
2014,08,10,11,41,18.40
2014,08,10,11,42,18.40
2014,08,10,11,43,18.40
2014,08,10,11,44,18.40
2014,08,10,11,45,18.40
2014,08,10,11,46,18.30
2014,08,10,11,47,18.40
2014,08,10,11,48,18.40
2014,08,10,11,49,18.40
2014,08,10,11,50,18.50
2014,08,10,11,51,18.50
2014,08,10,11,52,18.60
2014,08,10,11,53,18.70
2014,08,10,11,54,18.70
2014,08,10,11,55,18.80
2014,08,10,11,56,18.90
2014,08,10,11,57,19.00
2014,08,10,11,58,19.10
2014,08,10,11,59,19.20
2014,08,10,12,00,19.30
2014,08,10,12,01,19.30
2014,08,10,12,02,19.40
2014,08,10,12,03,19.40
2014,08,10,12,04,19.30
2014,08,10,12,05,19.30
2014,08,10,12,06,19.30
2014,08,10,12,07,19.30
2014,08,10,12,08,19.40
2014,08,10,12,09,19.40
2014,08,10,12,10,19.50
2014,08,10,12,11,19.50
2014,08,10,12,12,19.40
2014,08,10,12,13,19.40
2014,08,10,12,14,19.40
2014,08,10,12,15,19.50
2014,08,10,12,16,19.50
2014,08,10,12,17,19.60
2014,08,10,12,18,19.60
2014,08,10,12,19,19.60
2014,08,10,12,20,19.60
2014,08,10,12,21,19.60
2014,08,10,12,22,19.70
2014,08,10,12,23,19.80
2014,08,10,12,24,19.90
2014,08,10,12,25,20.00
2014,08,10,12,26,20.00
2014,08,10,12,27,20.10
2014,08,10,12,28,20.20
2014,08,10,12,29,20.30
2014,08,10,12,30,20.30
2014,08,10,12,31,20.50
2014,08,10,12,32,20.50
2014,08,10,12,33,20.50
2014,08,10,12,34,20.40
2014,08,10,12,35,20.40
2014,08,10,12,36,20.40
2014,08,10,12,37,20.40
2014,08,10,12,38,20.40
2014,08,10,12,39,20.40
2014,08,10,12,40,20.40
2014,08,10,12,41,20.30
2014,08,10,12,42,20.30
2014,08,10,12,43,20.30
2014,08,10,12,44,20.40
2014,08,10,12,45,20.50
2014,08,10,12,46,20.50
2014,08,10,12,47,20.60
2014,08,10,12,48,20.70
2014,08,10,12,49,20.70
2014,08,10,12,50,20.70
2014,08,10,12,51,20.80
2014,08,10,12,52,20.80
2014,08,10,12,53,20.90
2014,08,10,12,54,21.00
2014,08,10,12,55,21.00
2014,08,10,12,56,21.10
2014,08,10,12,57,21.10
2014,08,10,12,58,21.10
2014,08,10,12,59,21.10
2014,08,10,13,00,21.10
2014,08,10,13,01,21.00
2014,08,10,13,02,20.80
2014,08,10,13,03,20.70
2014,08,10,13,04,20.70
2014,08,10,13,05,20.70
2014,08,10,13,06,20.70
2014,08,10,13,07,20.70
2014,08,10,13,08,20.80
2014,08,10,13,09,20.90
2014,08,10,13,10,21.00
2014,08,10,13,11,21.00
2014,08,10,13,12,21.00
2014,08,10,13,13,20.90
2014,08,10,13,14,20.80
2014,08,10,13,15,20.80
2014,08,10,13,16,20.80
2014,08,10,13,17,20.70
2014,08,10,13,18,20.80
2014,08,10,13,19,20.80
2014,08,10,13,20,20.80
2014,08,10,13,21,20.80
2014,08,10,13,22,20.70
2014,08,10,13,23,20.70
2014,08,10,13,24,20.70
2014,08,10,13,25,20.70
2014,08,10,13,26,20.70
2014,08,10,13,27,20.70
2014,08,10,13,28,20.70
2014,08,10,13,29,20.70
2014,08,10,13,30,20.80
2014,08,10,13,31,20.90
2014,08,10,13,32,21.00
2014,08,10,13,33,21.10
2014,08,10,13,34,21.10
2014,08,10,13,35,21.20
2014,08,10,13,36,21.20
2014,08,10,13,37,21.20
2014,08,10,13,38,21.20
2014,08,10,13,39,21.20
2014,08,10,13,40,21.30
2014,08,10,13,41,21.30
2014,08,10,13,42,21.20
2014,08,10,13,43,21.00
2014,08,10,13,44,20.90
2014,08,10,13,45,20.80
2014,08,10,13,46,20.60
2014,08,10,13,47,20.50
2014,08,10,13,48,20.60
2014,08,10,13,49,20.60
2014,08,10,13,50,20.70
2014,08,10,13,51,20.70
2014,08,10,13,52,20.80
2014,08,10,13,53,20.90
2014,08,10,13,54,21.10
2014,08,10,13,55,21.20
2014,08,10,13,56,21.20
2014,08,10,13,57,21.20
2014,08,10,13,58,21.10
2014,08,10,13,59,21.00
2014,08,10,14,00,20.90
2014,08,10,14,01,20.90
2014,08,10,14,02,20.80
2014,08,10,14,03,20.80
2014,08,10,14,04,20.70
2014,08,10,14,05,20.80
2014,08,10,14,06,20.90
2014,08,10,14,07,21.00
2014,08,10,14,08,21.00
2014,08,10,14,09,21.10
2014,08,10,14,10,21.10
2014,08,10,14,11,21.20
2014,08,10,14,12,21.10
2014,08,10,14,13,21.10
2014,08,10,14,14,21.00
2014,08,10,14,15,20.90
2014,08,10,14,16,20.90
2014,08,10,14,17,21.00
2014,08,10,14,18,21.10
2014,08,10,14,19,21.30
2014,08,10,14,20,21.50
2014,08,10,14,21,21.60
2014,08,10,14,22,21.80
2014,08,10,14,23,21.90
2014,08,10,14,24,22.00
2014,08,10,14,25,22.10
2014,08,10,14,26,22.10
2014,08,10,14,27,22.00
2014,08,10,14,28,21.90
2014,08,10,14,29,21.90
2014,08,10,14,30,21.80
2014,08,10,14,31,21.70
2014,08,10,14,32,21.80
2014,08,10,14,33,21.80
2014,08,10,14,34,21.80
2014,08,10,14,35,21.90
2014,08,10,14,36,22.00
2014,08,10,14,37,22.10
2014,08,10,14,38,22.20
2014,08,10,14,39,22.30
2014,08,10,14,40,22.30
2014,08,10,14,41,22.30
2014,08,10,14,42,22.30
2014,08,10,14,43,22.40
2014,08,10,14,44,22.40
2014,08,10,14,45,22.40
2014,08,10,14,46,22.40
2014,08,10,14,47,22.50
2014,08,10,14,48,22.60
2014,08,10,14,49,22.60
2014,08,10,14,50,22.60
2014,08,10,14,51,22.60
2014,08,10,14,52,22.40
2014,08,10,14,53,22.40
2014,08,10,14,54,22.20
2014,08,10,14,55,22.10
2014,08,10,14,56,22.10
2014,08,10,14,57,22.10
2014,08,10,14,58,22.20
2014,08,10,14,59,22.20
2014,08,10,15,00,22.10
2014,08,10,15,01,22.00
2014,08,10,15,02,22.00
2014,08,10,15,03,21.90
2014,08,10,15,04,21.90
2014,08,10,15,05,21.90
2014,08,10,15,06,21.80
2014,08,10,15,07,21.70
2014,08,10,15,08,21.70
2014,08,10,15,09,21.70
2014,08,10,15,10,21.70
2014,08,10,15,11,21.70
2014,08,10,15,12,21.70
2014,08,10,15,13,21.80
2014,08,10,15,14,21.90
2014,08,10,15,15,22.00
2014,08,10,15,16,22.10
2014,08,10,15,17,22.10
2014,08,10,15,18,22.10
2014,08,10,15,19,22.10
2014,08,10,15,20,22.20
2014,08,10,15,21,22.20
2014,08,10,15,22,22.20
2014,08,10,15,23,22.20
2014,08,10,15,24,22.10
2014,08,10,15,25,22.10
2014,08,10,15,26,22.00
2014,08,10,15,27,22.00
2014,08,10,15,28,21.90
2014,08,10,15,29,21.90
2014,08,10,15,30,21.90
2014,08,10,15,31,21.90
2014,08,10,15,32,21.90
2014,08,10,15,33,21.90
2014,08,10,15,34,21.90
2014,08,10,15,35,21.90
2014,08,10,15,36,22.00
2014,08,10,15,37,22.10
2014,08,10,15,38,22.20
2014,08,10,15,39,22.40
2014,08,10,15,40,22.50
2014,08,10,15,41,22.50
2014,08,10,15,42,22.60
2014,08,10,15,43,22.60
2014,08,10,15,44,22.60
2014,08,10,15,45,22.60
2014,08,10,15,46,22.60
2014,08,10,15,47,22.60
2014,08,10,15,48,22.60
2014,08,10,15,49,22.50
2014,08,10,15,50,22.50
2014,08,10,15,51,22.50
2014,08,10,15,52,22.40
2014,08,10,15,53,22.40
2014,08,10,15,54,22.40
2014,08,10,15,55,22.40
2014,08,10,15,56,22.40
2014,08,10,15,57,22.40
2014,08,10,15,58,22.40
2014,08,10,15,59,22.40
2014,08,10,16,00,22.50
2014,08,10,16,01,22.50
2014,08,10,16,02,22.50
2014,08,10,16,03,22.60
2014,08,10,16,04,22.70
2014,08,10,16,05,22.80
2014,08,10,16,06,22.90
2014,08,10,16,07,22.90
2014,08,10,16,08,22.90
2014,08,10,16,09,22.80
2014,08,10,16,10,22.90
2014,08,10,16,11,23.00
2014,08,10,16,12,23.10
2014,08,10,16,13,23.20
2014,08,10,16,14,23.20
2014,08,10,16,15,23.20
2014,08,10,16,16,23.20
2014,08,10,16,17,23.20
2014,08,10,16,18,23.30
2014,08,10,16,19,23.30
2014,08,10,16,20,23.30
2014,08,10,16,21,23.30
2014,08,10,16,22,23.30
2014,08,10,16,23,23.20
2014,08,10,16,24,23.20
2014,08,10,16,25,23.10
2014,08,10,16,26,23.10
2014,08,10,16,27,23.10
2014,08,10,16,28,23.10
2014,08,10,16,29,23.10
2014,08,10,16,30,23.10
2014,08,10,16,31,23.10
2014,08,10,16,32,23.10
2014,08,10,16,33,23.00
2014,08,10,16,34,22.90
2014,08,10,16,35,22.90
2014,08,10,16,36,22.80
2014,08,10,16,37,22.80
2014,08,10,16,38,22.80
2014,08,10,16,39,22.80
2014,08,10,16,40,22.80
2014,08,10,16,41,22.80
2014,08,10,16,42,22.80
2014,08,10,16,43,22.90
2014,08,10,16,44,22.80
2014,08,10,16,45,22.80
2014,08,10,16,46,22.90
2014,08,10,16,47,22.90
2014,08,10,16,48,22.90
2014,08,10,16,49,22.90
2014,08,10,16,50,22.90
2014,08,10,16,51,22.90
2014,08,10,16,52,23.00
2014,08,10,16,53,23.00
2014,08,10,16,54,23.10
2014,08,10,16,55,23.20
2014,08,10,16,56,23.20
2014,08,10,16,57,23.30
2014,08,10,16,58,23.40
2014,08,10,16,59,23.50
2014,08,10,17,00,23.50
2014,08,10,17,01,23.60
2014,08,10,17,02,23.70
2014,08,10,17,03,23.80
2014,08,10,17,04,23.70
2014,08,10,17,05,23.70
2014,08,10,17,06,23.60
2014,08,10,17,07,23.50
2014,08,10,17,08,23.40
2014,08,10,17,09,23.30
2014,08,10,17,10,23.30
2014,08,10,17,11,23.30
2014,08,10,17,12,23.20
2014,08,10,17,13,23.20
2014,08,10,17,14,23.20
2014,08,10,17,15,23.30
2014,08,10,17,16,23.30
2014,08,10,17,17,23.30
2014,08,10,17,18,23.30
2014,08,10,17,19,23.30
2014,08,10,17,20,23.30
2014,08,10,17,21,23.30
2014,08,10,17,22,23.30
2014,08,10,17,23,23.30
2014,08,10,17,24,23.30
2014,08,10,17,25,23.30
2014,08,10,17,26,23.40
2014,08,10,17,27,23.30
2014,08,10,17,28,23.20
2014,08,10,17,29,23.10
2014,08,10,17,30,23.00
2014,08,10,17,31,22.90
2014,08,10,17,32,22.90
2014,08,10,17,33,22.90
2014,08,10,17,34,22.90
2014,08,10,17,35,22.90
2014,08,10,17,36,23.00
2014,08,10,17,37,23.10
2014,08,10,17,38,23.10
2014,08,10,17,39,23.20
2014,08,10,17,40,23.30
2014,08,10,17,41,23.30
2014,08,10,17,42,23.30
2014,08,10,17,43,23.40
2014,08,10,17,44,23.40
2014,08,10,17,45,23.40
2014,08,10,17,46,23.50
2014,08,10,17,47,23.50
2014,08,10,17,48,23.50
2014,08,10,17,49,23.50
2014,08,10,17,50,23.50
2014,08,10,17,51,23.50
2014,08,10,17,52,23.50
2014,08,10,17,53,23.50
2014,08,10,17,54,23.40
2014,08,10,17,55,23.40
2014,08,10,17,56,23.50
2014,08,10,17,57,23.50
2014,08,10,17,58,23.60
2014,08,10,17,59,23.60
2014,08,10,18,00,23.50
2014,08,10,18,01,23.40
2014,08,10,18,02,23.40
2014,08,10,18,03,23.40
2014,08,10,18,04,23.50
2014,08,10,18,05,23.50
2014,08,10,18,06,23.60
2014,08,10,18,07,23.70
2014,08,10,18,08,23.70
2014,08,10,18,09,23.70
2014,08,10,18,10,23.80
2014,08,10,18,11,23.80
2014,08,10,18,12,23.80
2014,08,10,18,13,23.80
2014,08,10,18,14,23.90
2014,08,10,18,15,23.90
2014,08,10,18,16,23.90
2014,08,10,18,17,23.90
2014,08,10,18,18,23.90
2014,08,10,18,19,24.00
2014,08,10,18,20,24.10
2014,08,10,18,21,24.10
2014,08,10,18,22,24.10
2014,08,10,18,23,24.10
2014,08,10,18,24,24.00
2014,08,10,18,25,23.90
2014,08,10,18,26,23.90
2014,08,10,18,27,23.80
2014,08,10,18,28,23.80
2014,08,10,18,29,23.80
2014,08,10,18,30,23.70
2014,08,10,18,31,23.70
2014,08,10,18,32,23.70
2014,08,10,18,33,23.70
2014,08,10,18,34,23.60
2014,08,10,18,35,23.60
2014,08,10,18,36,23.50
2014,08,10,18,37,23.40
2014,08,10,18,38,23.30
2014,08,10,18,39,23.30
2014,08,10,18,40,23.30
2014,08,10,18,41,23.30
2014,08,10,18,42,23.30
2014,08,10,18,43,23.20
2014,08,10,18,44,23.20
2014,08,10,18,45,23.20
2014,08,10,18,46,23.20
2014,08,10,18,47,23.20
2014,08,10,18,48,23.20
2014,08,10,18,49,23.20
2014,08,10,18,50,23.20
2014,08,10,18,51,23.20
2014,08,10,18,52,23.30
2014,08,10,18,53,23.30
2014,08,10,18,54,23.40
2014,08,10,18,55,23.40
2014,08,10,18,56,23.40
2014,08,10,18,57,23.40
2014,08,10,18,58,23.40
2014,08,10,18,59,23.40
2014,08,10,19,00,23.40
2014,08,10,19,01,23.40
2014,08,10,19,02,23.40
2014,08,10,19,03,23.40
2014,08,10,19,04,23.40
2014,08,10,19,05,23.40
2014,08,10,19,06,23.40
2014,08,10,19,07,23.40
2014,08,10,19,08,23.40
2014,08,10,19,09,23.40
2014,08,10,19,10,23.40
2014,08,10,19,11,23.40
2014,08,10,19,12,23.40
2014,08,10,19,13,23.40
2014,08,10,19,14,23.40
2014,08,10,19,15,23.40
